Location: G�nzburg
(48.4565°N, 10.3217°E)
Time: 07:03:29
(UTC+01:00)

ISS - Pass Details

Date: 06 January 2018
Orbit: 402 x 407 km, 51.6° (Epoch: 18 January)

Event Time Altitude Azimuth Distance (km) Brightness Sun altitude
Exits shadow 06:46:20 24° 302° (WNW) 885 -2.7 -13.2°
Maximum altitude 06:47:58 48° 6° (N) 546 -3.3 -12.9°
Drops below altitude 10° 06:51:11 10° 82° (E) 1,470 0.0 -12.4°
Sets 06:53:19 0° 88° (E) 2,331 1.4 -12.1°
